Volver al catálogo

H-2A R/B

ActivoGTO
NORAD 42918·ROCKET BODY·🇯🇵 Japan

Lanzado Aug 19, 2017 desde Tanegashima Space Center

Loading…

TLE

EnvejeciendoSource: Space-Track

Época: Sep 14, 2026, 07:11 UTC

1 42918U 17048B   26257.29943940  .00002086  00000-0  80990-3 0  9991
2 42918  19.3955 192.4405 7144551  79.2609 347.4622  2.44240993 78014

Sigue H-2A R/B en tiempo real con AllMySat

Download on the App Store